This demonstration page uses our WeatherBlox Daily Observations layout. Learn more.

Left ArrowRight Arrow

39.01783, -85.05884

Hourly Observations for September 25, 2018

Temp ( °F °C ) Dew Point ( °F °C ) Humidity (%) Winds ( mph kmh ) Pressure ( in mb ) Visibility ( mi km ) Precip ( " mm )
12:52 am 00:52 Cloudy 69 20.6 69 20.6 100 100 S 13 20 30.04 1017 10 16 N/A
1:03 am 01:03 Cloudy 69 20.6 69 20.6 100 100 S 12 19 30.03 1017 10 16 N/A
1:52 am 01:52 Cloudy 69 20.6 68 20 96 96 S 10 17 30.03 1017 10 16 N/A
2:52 am 02:52 Cloudy with Light Rain 69 20.6 68 20 96 96 S 10 17 30.03 1017 10 16 N/A
3:17 am 03:17 Cloudy 69 20.6 68 20 96 96 S 9 15 30.03 1017 10 16 0.01 0.25
3:34 am 03:34 Mostly Cloudy 68 20 68 20 100 100 S 12 19 30.00 1016 10 16 0.01 0.25
3:52 am 03:52 Cloudy 69 20.6 68 20 96 96 S 7 11 30.01 1016 9 14 0.01 0.25
4:33 am 04:33 Cloudy 69 20.6 69 20.6 100 100 S 9 15 30.00 1016 10 16 N/A
4:52 am 04:52 Cloudy 69 20.6 69 20.6 100 100 S 8 13 30.01 1016 10 16 N/A
5:24 am 05:24 Cloudy 69 20.6 69 20.6 100 100 S 9 15 30.00 1016 10 16 N/A
5:52 am 05:52 Cloudy 69 20.6 69 20.6 100 100 SSW 8 13 30.01 1016 10 16 N/A
6:52 am 06:52 Cloudy 70 21.1 69 20.6 97 97 S 12 19 30.02 1017 9 14 N/A
7:28 am 07:28 Cloudy 70 21.1 70 21.1 100 100 SSW 9 15 30.03 1017 10 16 N/A
7:52 am 07:52 Cloudy 70 21.1 70 21.1 100 100 S 9 15 30.03 1017 10 16 N/A
8:30 am 08:30 Cloudy 70 21.1 70 21.1 100 100 S 10 17 30.03 1017 10 16 0.01 0.25
8:52 am 08:52 Cloudy 71 21.7 70 21.1 96 96 SSW 12 19 30.03 1017 10 16 0.01 0.25
9:12 am 09:12 Cloudy 71 21.7 71 21.7 100 100 S 12 19 30.03 1017 10 16 N/A
9:35 am 09:35 Cloudy 72 22.2 70 21.1 94 94 SSW 13 20 30.03 1017 10 16 N/A
9:52 am 09:52 Cloudy 72 22.2 71 21.7 97 97 S 15 24 30.03 1017 10 16 N/A
10:28 am 10:28 Cloudy 72 22.2 70 21.1 94 94 SSW 10 17 30.03 1017 10 16 N/A
10:52 am 10:52 Cloudy 72 22.2 71 21.7 97 97 S 14 22 30.03 1017 10 16 N/A
11:52 am 11:52 Cloudy 74 23.3 71 21.7 91 91 SSW 12 19 30.03 1017 10 16 N/A
12:52 pm 12:52 Cloudy 74 23.3 72 22.2 94 94 SSW 9 15 30.04 1017 10 16 N/A
1:52 pm 13:52 Cloudy with Light Rain 74 23.3 72 22.2 94 94 SSW 8 13 30.04 1017 7 11 N/A
2:20 pm 14:20 Cloudy 74 23.3 73 22.8 97 97 S 8 13 30.00 1016 10 16 N/A
2:52 pm 14:52 Cloudy 75 23.9 72 22.2 90 90 SSE 15 24 29.95 1014 10 16 N/A
3:52 pm 15:52 Mostly Cloudy 79 26.1 73 22.8 82 82 S 17 28 29.95 1014 10 16 N/A
4:52 pm 16:52 Mostly Cloudy 78 25.6 73 22.8 85 85 S 14 22 29.91 1013 10 16 N/A
5:52 pm 17:52 Mostly Cloudy 77 25 72 22.2 85 85 SSW 9 15 29.92 1013 10 16 N/A
6:33 pm 18:33 Cloudy with Light Rain 76 24.4 73 22.8 91 91 S 8 13 29.94 1014 10 16 N/A
6:52 pm 18:52 Cloudy with Light Rain 75 23.9 73 22.8 94 94 SSW 6 9 29.93 1013 10 16 N/A
7:39 pm 19:39 Mostly Cloudy 74 23.3 73 22.8 97 97 SW 9 15 29.94 1014 10 16 0.04 1.02
7:52 pm 19:52 Mostly Cloudy 74 23.3 72 22.2 94 94 SW 6 9 29.94 1014 10 16 0.04 1.02
8:39 pm 20:39 Cloudy 73 22.8 72 22.2 96 96 SSW 7 11 29.94 1014 10 16 N/A
8:52 pm 20:52 Cloudy 73 22.8 72 22.2 96 96 SW 8 13 29.95 1014 10 16 N/A
9:22 pm 21:22 Mostly Cloudy 72 22.2 72 22.2 100 100 SSW 9 15 29.94 1014 10 16 N/A
9:39 pm 21:39 Mostly Cloudy 72 22.2 72 22.2 100 100 SSW 8 13 29.94 1014 10 16 N/A
9:52 pm 21:52 Mostly Cloudy 71 21.7 71 21.7 100 100 S 8 13 29.94 1014 10 16 N/A
10:43 pm 22:43 Cloudy 73 22.8 72 22.2 96 96 SSW 8 13 29.94 1014 10 16 N/A
10:52 pm 22:52 Cloudy 73 22.8 72 22.2 96 96 SSW 9 15 29.95 1014 10 16 N/A
11:52 pm 23:52 Cloudy 73 22.8 73 22.8 100 100 SSW 10 17 29.96 1014 10 16 N/A

Powered by AerisWeather